PBO Station Position Time Series. Reference Frame : NAM14
Format Version,1.1.1
4-character ID,TACO
Station name,TACO
Begin Date, 2008-05-29
End Date, 2023-06-26
Release Date, 2023-06-27
Reference position, 47.2288673436 North Latitude, -122.4715075794 East Longitude, 81.13041 meters elevation,
Date, North (mm), East (mm), Vertical (mm), North Std. Deviation (mm), East Std. Deviation (mm),              Vertical Std. Deviation (mm), Quality,
2008-05-29,0.00, 0.00, 0.00, 3.53, 2.47, 12.74, repro,
2008-06-01,3.73, 0.22, -5.27, 3.71, 2.63, 13.74, repro,
2008-06-02,0.10, -0.66, -13.40, 3.34, 2.42, 11.94, repro,
2008-06-03,1.24, -1.05, -25.36, 3.47, 2.47, 12.44, repro,
2008-06-04,-1.20, -1.28, 2.76, 3.79, 2.57, 13.11, repro,
2008-06-05,2.18, 0.56, 2.63, 3.50, 2.48, 12.86, repro,
2008-06-06,3.79, -1.50, -10.71, 3.20, 2.22, 11.57, repro,
2008-06-07,0.42, -0.12, -8.66, 3.32, 2.44, 11.92, repro,
2008-06-08,2.02, 0.09, -7.99, 3.54, 2.45, 12.70, repro,
2008-06-09,1.90, -0.36, -16.81, 3.40, 2.35, 11.95, repro,
2008-06-10,0.38, 1.60, 2.85, 3.77, 2.70, 14.03, repro,
2008-06-11,3.59, 0.31, -13.89, 3.58, 2.53, 13.11, repro,
2008-06-12,2.88, 0.69, -1.78, 3.69, 2.58, 13.91, repro,
2008-06-13,3.43, 1.12, -10.92, 3.54, 2.48, 13.12, repro,
2008-06-14,4.13, -0.42, 1.40, 3.50, 2.43, 12.92, repro,
2008-06-15,3.17, 0.37, -8.58, 3.52, 2.48, 12.83, repro,
2008-06-16,2.84, 0.97, -8.77, 3.30, 2.27, 11.74, repro,
2008-06-17,1.03, 0.46, 1.08, 3.22, 2.24, 11.53, repro,
2008-06-18,1.27, 1.19, 1.93, 3.21, 2.24, 11.29, repro,
2008-06-19,2.46, 1.41, -5.37, 3.23, 2.31, 11.62, repro,
2008-06-20,0.42, 0.86, -4.02, 3.32, 2.31, 12.11, repro,
2008-06-21,2.99, -0.22, -6.97, 3.37, 2.36, 12.42, repro,
2008-06-22,-1.73, -0.11, -0.27, 3.27, 2.26, 11.71, repro,
2008-06-23,1.16, 0.61, -6.07, 3.55, 2.49, 12.77, repro,
2008-06-24,-0.60, 0.86, -4.30, 3.29, 2.38, 12.25, repro,
2008-06-25,-0.53, 1.29, -1.05, 3.57, 2.51, 13.33, repro,
2008-06-26,0.07, -0.11, 2.17, 3.47, 2.58, 13.45, repro,
2008-06-27,-0.33, 0.42, -1.81, 3.28, 2.32, 11.67, repro,
2008-06-28,2.08, 0.58, -1.63, 3.81, 2.78, 13.88, repro,
2008-06-29,0.08, 1.09, -2.77, 3.25, 2.36, 11.86, repro,
2008-06-30,-1.78, -1.07, -9.16, 3.32, 2.39, 12.21, repro,
2008-07-01,-2.38, -2.51, -7.07, 3.35, 2.29, 11.61, repro,
2008-07-02,-0.34, -0.26, -9.69, 3.53, 2.53, 13.42, repro,
2008-07-03,-1.29, -0.14, -7.80, 3.15, 2.19, 11.27, repro,
2008-07-04,-1.67, -0.93, 0.30, 3.16, 2.32, 11.29, repro,
2008-07-05,-1.47, 0.08, -4.12, 3.14, 2.23, 11.35, repro,
2008-07-06,-1.81, -1.05, 1.88, 3.41, 2.41, 11.99, repro,
2008-07-07,-1.91, -0.61, -5.57, 2.98, 2.12, 10.69, repro,
2008-07-08,0.79, -1.07, 3.84, 3.33, 2.40, 12.11, repro,
2008-07-09,1.26, -1.73, 3.54, 3.43, 2.36, 12.24, repro,
2008-07-10,-0.36, -1.24, -1.25, 3.26, 2.33, 11.45, repro,
2008-07-11,-1.43, -0.98, -3.53, 3.37, 2.35, 12.27, repro,
2008-07-12,-0.79, -1.69, 5.96, 3.39, 2.34, 12.51, repro,
2008-07-13,-1.54, -1.80, 5.63, 3.58, 2.46, 13.08, repro,
2008-07-14,-0.80, -1.99, 9.01, 3.44, 2.46, 12.68, repro,
2008-07-15,-1.52, -0.56, 3.54, 3.59, 2.53, 13.18, repro,
2008-07-16,0.18, -0.59, 9.06, 3.83, 2.65, 14.64, repro,
2008-07-17,-1.53, -1.28, 2.46, 3.42, 2.34, 12.42, repro,
2008-07-18,-0.74, -1.07, 3.66, 3.66, 2.51, 13.42, repro,
2008-07-19,-1.96, 0.45, 9.47, 3.59, 2.47, 12.74, repro,
2008-07-20,0.07, -1.44, 6.58, 3.55, 2.46, 12.60, repro,
2008-07-21,-0.40, -1.97, 4.61, 3.57, 2.52, 12.79, repro,
2008-07-22,-2.10, -0.67, 10.07, 3.20, 2.24, 11.33, repro,
2008-07-23,-1.45, 0.34, 5.82, 3.48, 2.47, 12.58, repro,
2008-07-24,-0.61, -0.72, 3.81, 3.41, 2.40, 12.30, repro,
2008-07-25,-0.24, -1.00, 16.22, 3.44, 2.43, 11.98, repro,
2008-07-26,-1.70, -2.82, 5.74, 3.46, 2.51, 12.73, repro,
2008-07-27,0.44, -0.95, 4.76, 3.33, 2.31, 11.58, repro,
2008-07-28,-1.07, -2.67, 8.25, 3.38, 2.32, 11.23, repro,
2008-07-29,0.92, -2.12, 22.80, 3.95, 2.72, 14.39, repro,
2008-07-30,0.87, -1.19, 8.37, 3.96, 2.71, 14.26, repro,
2008-07-31,0.29, -0.18, 6.77, 3.48, 2.42, 12.50, repro,
2008-08-01,1.11, -0.61, 13.23, 3.32, 2.35, 11.95, repro,
2008-08-02,-0.34, -1.59, 23.52, 3.62, 2.56, 13.42, repro,
2008-08-03,0.61, -2.81, 7.35, 3.56, 2.50, 12.90, repro,
2008-08-04,1.66, 0.26, 12.10, 4.17, 3.00, 16.21, repro,
2008-08-05,2.13, -1.31, 5.40, 3.36, 2.43, 12.61, repro,
2008-08-06,-1.20, -2.30, 8.80, 3.21, 2.27, 11.49, repro,
2008-08-07,-1.66, -2.88, 16.96, 3.53, 2.45, 12.79, repro,
2008-08-08,-1.12, -1.21, 16.45, 3.41, 2.37, 11.72, repro,
2008-08-09,0.83, -4.94, 4.70, 3.22, 2.29, 11.40, repro,
2008-08-10,0.56, -0.51, 4.26, 3.66, 2.66, 13.61, repro,
2008-08-11,-1.53, -2.66, 1.68, 3.24, 2.29, 11.39, repro,
2008-08-12,0.49, -2.80, 9.99, 3.30, 2.27, 11.69, repro,
2008-08-13,-0.11, -2.13, 19.91, 3.37, 2.32, 11.81, repro,
2008-08-14,-0.75, -1.91, 3.05, 3.50, 2.42, 12.55, repro,
2008-08-15,1.07, -2.61, 11.96, 3.54, 2.41, 12.82, repro,
2008-08-16,0.96, -2.70, 23.69, 3.41, 2.36, 12.28, repro,
2008-08-17,-0.53, -4.04, 17.39, 3.62, 2.49, 13.20, repro,
2008-08-18,-2.80, -2.82, 3.48, 3.42, 2.51, 13.03, repro,
2008-08-19,-1.09, -3.01, 16.94, 3.51, 2.39, 12.64, repro,
2008-08-20,1.40, -2.82, 8.09, 3.51, 2.44, 12.66, repro,
2008-08-21,2.07, -3.28, 13.55, 3.66, 2.48, 12.92, repro,
2008-08-22,2.32, -2.50, 11.09, 3.48, 2.39, 12.28, repro,
2008-08-23,1.52, -2.94, 2.95, 3.42, 2.44, 12.42, repro,
2008-08-24,1.11, -4.26, 2.12, 3.27, 2.30, 11.74, repro,
2008-08-25,-0.08, -5.16, 14.02, 3.49, 2.41, 12.62, repro,
2008-08-26,0.30, -1.55, 9.15, 3.78, 2.64, 13.96, repro,
2008-08-27,0.21, -2.55, 0.44, 3.58, 2.46, 12.90, repro,
2008-08-28,1.37, -3.98, 6.58, 3.56, 2.43, 12.27, repro,
2008-08-29,3.09, -1.11, 14.78, 3.34, 2.31, 11.76, repro,
2008-08-30,3.05, -0.41, 9.12, 3.41, 2.37, 12.11, repro,
2008-08-31,1.34, -0.56, 14.21, 3.58, 2.49, 12.97, repro,
2008-09-01,0.98, -1.20, 0.75, 3.70, 2.59, 13.66, repro,
2008-09-02,0.39, -1.30, 1.55, 3.34, 2.34, 12.57, repro,
2008-09-03,0.84, -0.68, -1.64, 3.38, 2.38, 12.58, repro,
2008-09-04,-0.45, -2.20, 7.38, 3.55, 2.47, 13.37, repro,
2008-09-05,3.17, -1.68, 10.41, 3.78, 2.72, 14.32, repro,
2008-09-06,2.58, -1.42, 1.09, 3.65, 2.56, 13.35, repro,
2008-09-07,2.29, -0.21, -3.31, 3.46, 2.49, 12.56, repro,
2008-09-08,3.40, -1.45, 8.26, 3.41, 2.32, 12.40, repro,
2008-09-09,3.59, -1.70, 6.12, 3.96, 2.59, 13.99, repro,
2008-09-10,2.39, -1.02, -2.88, 3.74, 2.52, 12.88, repro,
2008-09-11,2.08, -1.18, 10.81, 3.81, 2.72, 14.38, repro,
2008-09-12,1.30, -3.50, 13.37, 3.35, 2.44, 12.66, repro,
2008-09-13,1.13, -0.96, 5.74, 3.58, 2.60, 13.76, repro,
2008-09-14,0.89, -2.75, 1.63, 3.27, 2.30, 11.66, repro,
2008-09-15,2.59, -1.54, 16.16, 3.49, 2.49, 12.98, repro,
2008-09-16,3.23, -0.63, -4.98, 3.55, 2.50, 13.01, repro,
2008-09-17,1.34, 0.16, -6.16, 3.31, 2.35, 11.97, repro,
2008-09-18,1.93, -0.51, 5.52, 3.56, 2.47, 12.96, repro,
2008-09-19,2.77, -1.80, 11.61, 3.57, 2.38, 12.89, repro,
2008-09-20,4.58, -1.35, -4.89, 3.63, 2.53, 13.58, repro,
2008-09-21,1.47, -3.43, 11.15, 3.41, 2.37, 12.40, repro,
2008-09-22,1.32, -2.26, 4.31, 3.46, 2.41, 12.74, repro,
2008-09-23,2.07, -0.62, 7.89, 3.36, 2.39, 12.37, repro,
2008-09-24,2.80, -2.15, 7.02, 3.44, 2.43, 12.78, repro,
2008-09-25,4.31, 1.35, 12.98, 3.56, 2.46, 13.17, repro,
2008-09-26,5.39, -0.45, 6.80, 3.43, 2.37, 12.38, repro,
2008-09-27,0.39, -2.02, 8.61, 3.54, 2.58, 13.07, repro,
2008-09-28,4.41, -1.62, -1.62, 3.31, 2.31, 11.85, repro,
2008-09-29,2.30, 0.24, 8.47, 3.42, 2.44, 13.07, repro,
2008-09-30,3.69, -1.27, -4.81, 3.09, 2.15, 11.28, repro,
2008-10-01,3.91, -1.55, 10.70, 3.36, 2.37, 12.41, repro,
2008-10-02,2.40, -2.07, 17.87, 3.54, 2.46, 13.11, repro,
2008-10-03,3.89, -2.46, 2.51, 3.73, 2.61, 13.55, repro,
2008-10-04,1.11, -3.98, 21.22, 3.48, 2.45, 12.90, repro,
2008-10-05,3.74, -1.34, 3.22, 3.47, 2.41, 12.49, repro,
2008-10-06,1.29, -0.14, 17.72, 3.53, 2.44, 13.03, repro,
2008-10-07,2.29, -0.59, 10.58, 3.85, 2.67, 14.82, repro,
2008-10-08,2.33, -0.83, -0.56, 3.56, 2.56, 13.79, repro,
2008-10-09,4.37, -1.91, 11.97, 3.36, 2.40, 12.58, repro,
2008-10-10,4.93, -0.68, -3.33, 3.38, 2.39, 12.67, repro,
2008-10-11,3.74, 0.19, 6.30, 3.43, 2.38, 12.75, repro,
2008-10-12,4.29, 0.05, 4.45, 3.46, 2.37, 12.42, repro,
2008-10-13,3.97, 0.27, 10.32, 3.37, 2.37, 12.43, repro,
2008-10-14,4.15, -1.98, 7.21, 3.35, 2.35, 12.32, repro,
2008-10-15,3.92, -1.60, -4.13, 3.25, 2.29, 11.86, repro,
2008-10-16,2.58, -2.32, -2.40, 3.10, 2.10, 10.96, repro,
2008-10-17,1.73, -0.00, 5.78, 3.39, 2.33, 12.31, repro,
2008-10-18,2.71, -0.90, -1.65, 3.19, 2.22, 11.92, repro,
2008-10-19,3.52, -1.23, 9.57, 3.51, 2.48, 13.13, repro,
2008-10-20,2.74, -1.34, 16.24, 3.37, 2.27, 11.98, repro,
2008-10-21,3.05, 0.94, 1.05, 3.32, 2.37, 12.21, repro,
2008-10-22,2.86, -0.03, -2.27, 3.33, 2.22, 11.92, repro,
2008-10-23,1.92, -0.39, 13.67, 3.34, 2.25, 12.14, repro,
2008-10-24,4.25, 0.38, 10.44, 3.72, 2.68, 14.41, repro,
2008-10-25,4.40, -1.46, 18.85, 3.47, 2.29, 12.47, repro,
2008-10-26,3.20, -0.91, 3.93, 3.47, 2.45, 12.77, repro,
2008-10-27,3.96, 0.23, -4.52, 3.37, 2.37, 12.28, repro,
2008-10-28,5.41, -0.71, 4.44, 3.72, 2.51, 13.47, repro,
2008-10-29,4.02, -0.41, 8.96, 3.61, 2.45, 12.69, repro,
2008-10-30,2.97, -1.75, 4.90, 3.34, 2.24, 11.94, repro,
2008-10-31,3.40, -0.43, 1.86, 3.15, 2.21, 11.23, repro,
2008-11-01,3.07, -0.07, 12.35, 3.38, 2.31, 12.33, repro,
2008-11-02,5.59, -0.38, -2.15, 3.70, 2.57, 13.61, repro,
2008-11-03,4.21, -1.04, 10.87, 3.19, 2.19, 10.99, repro,
2008-11-04,5.43, -1.56, 6.03, 3.53, 2.46, 12.93, repro,
2008-11-05,3.25, -0.69, 12.07, 3.56, 2.56, 13.42, repro,
2008-11-06,4.19, 1.31, -3.49, 3.44, 2.26, 12.09, repro,
2008-11-07,6.13, -0.96, 2.02, 3.33, 2.33, 12.18, repro,
2008-11-08,4.09, 0.85, -4.81, 3.33, 2.29, 12.15, repro,
2008-11-09,4.09, -0.52, 10.25, 3.22, 2.19, 11.41, repro,
2008-11-10,5.62, 0.16, 14.38, 3.50, 2.32, 12.01, repro,
2008-11-11,5.39, -0.03, 7.04, 3.24, 2.25, 11.68, repro,
2008-11-12,5.25, -0.40, 1.91, 3.56, 2.35, 12.21, repro,
2008-11-14,3.94, 0.17, -18.51, 4.87, 3.63, 18.74, repro,
2008-11-15,4.18, 1.19, -2.27, 3.35, 2.41, 12.71, repro,
2008-11-16,3.99, -0.92, 0.62, 3.54, 2.64, 13.81, repro,
2008-11-17,3.48, -0.70, 7.30, 3.96, 2.98, 16.13, repro,
2008-11-18,5.49, 0.31, 3.94, 3.59, 2.52, 13.01, repro,
2008-11-19,3.20, 0.29, -7.40, 3.39, 2.37, 12.72, repro,
2008-11-20,5.24, 0.53, -4.18, 3.43, 2.49, 13.18, repro,
2008-11-21,5.45, 0.05, -13.38, 4.19, 3.03, 17.41, repro,
2008-11-22,7.72, 0.37, 10.08, 4.19, 3.29, 17.54, repro,
2008-11-23,5.06, 0.99, -5.45, 3.71, 2.68, 14.45, repro,
2008-11-24,7.57, 1.34, 3.07, 3.62, 2.63, 13.98, repro,
2008-11-25,7.27, 1.46, -0.39, 3.50, 2.65, 14.17, repro,
2008-11-26,6.76, 1.03, -3.60, 3.46, 2.30, 12.19, repro,
2008-11-27,4.91, 6.58, -29.31, 12.09, 8.36, 60.96, repro,
2008-11-28,5.67, -0.92, 0.12, 3.58, 2.73, 14.45, repro,
2008-11-29,5.16, -0.11, 4.03, 3.61, 2.53, 13.81, repro,
2008-11-30,7.13, -0.85, 4.96, 3.49, 2.43, 12.87, repro,
2008-12-01,6.54, 0.30, 14.75, 3.44, 2.49, 12.90, repro,
2008-12-02,5.80, 0.90, 22.84, 3.85, 2.71, 13.79, repro,
2008-12-03,6.22, 0.95, 11.25, 3.59, 2.70, 14.22, repro,
2008-12-04,5.92, 1.73, -6.47, 3.56, 2.55, 13.39, repro,
2008-12-05,7.90, 1.05, 3.11, 3.61, 2.45, 13.06, repro,
2008-12-06,5.38, -0.21, -3.98, 3.77, 2.73, 15.06, repro,
2008-12-07,6.94, 0.07, 0.11, 3.82, 2.93, 15.50, repro,
2008-12-08,8.95, 0.00, 0.90, 3.74, 2.65, 14.08, repro,
2008-12-09,8.40, 1.47, -0.62, 3.89, 2.64, 14.71, repro,
2008-12-10,9.23, 1.44, -1.72, 3.57, 2.48, 13.42, repro,
2008-12-11,7.69, 0.09, -2.86, 3.82, 2.72, 13.96, repro,
2008-12-12,8.53, -1.77, -2.92, 3.81, 2.56, 14.02, repro,
2008-12-13,9.14, -1.28, 5.13, 3.48, 2.41, 12.80, repro,
2008-12-14,7.57, -0.24, -1.91, 3.38, 2.37, 12.65, repro,
2008-12-15,7.00, 1.22, -1.05, 3.23, 2.33, 12.10, repro,
2008-12-16,5.62, 1.00, 1.57, 3.32, 2.32, 12.30, repro,
2008-12-17,6.77, 1.38, -0.72, 3.36, 2.45, 12.64, repro,
2008-12-18,7.58, 0.65, 6.70, 3.37, 2.32, 12.29, repro,
2008-12-19,6.96, 0.16, 3.40, 3.24, 2.14, 11.58, repro,
2008-12-20,8.16, 1.23, -1.96, 3.40, 2.39, 12.45, repro,
2008-12-21,4.99, 4.06, -18.17, 3.25, 2.22, 11.92, repro,
2008-12-22,4.80, 2.68, -22.04, 3.44, 2.29, 12.39, repro,
2008-12-23,6.53, 0.91, 0.83, 3.40, 2.30, 12.53, repro,
2008-12-24,6.14, -0.59, -5.21, 3.30, 2.31, 12.28, repro,
2008-12-25,5.67, -0.96, -0.11, 3.36, 2.34, 12.24, repro,
2008-12-26,4.82, -1.18, 8.95, 3.82, 2.58, 14.05, repro,
2008-12-27,5.92, 1.24, 0.46, 6.26, 4.95, 27.36, repro,
2008-12-28,7.73, -0.57, 3.02, 3.15, 2.18, 11.60, repro,
2008-12-29,6.46, -0.81, 4.60, 3.36, 2.29, 12.58, repro,
2008-12-30,7.21, -0.55, -11.46, 3.31, 2.19, 11.79, repro,
2008-12-31,5.95, 0.89, -3.81, 3.23, 2.28, 11.92, repro,
2009-01-01,5.64, 0.08, 2.60, 3.94, 2.70, 14.01, repro,
2009-01-02,6.51, 0.09, -8.27, 3.30, 2.31, 12.24, repro,
2009-01-03,5.67, 0.71, 4.69, 3.20, 2.17, 11.55, repro,
2009-01-04,6.29, 0.48, -0.51, 3.10, 2.17, 11.36, repro,
2009-01-05,7.08, 1.41, 9.37, 3.22, 2.23, 11.84, repro,
2009-01-06,5.24, -0.32, 3.69, 3.15, 2.18, 11.29, repro,
2009-01-07,8.51, 0.18, -3.15, 3.23, 2.19, 11.67, repro,
2009-01-08,6.36, -0.57, 2.41, 3.38, 2.34, 12.59, repro,
2009-01-09,6.63, -0.10, -12.70, 3.42, 2.35, 12.40, repro,
2009-01-10,7.79, 0.06, -17.33, 3.26, 2.16, 11.58, repro,
2009-01-11,4.91, 0.47, -10.71, 3.25, 2.21, 11.80, repro,
2009-01-12,5.78, 0.46, -8.86, 3.04, 2.14, 11.16, repro,
2009-01-13,6.29, 0.49, -4.31, 3.24, 2.22, 11.75, repro,
2009-01-14,7.06, 0.50, -20.22, 3.23, 2.23, 11.91, repro,
2009-01-15,7.10, 0.94, -2.26, 3.29, 2.24, 12.21, repro,
2009-01-16,6.14, 0.27, -3.59, 3.27, 2.28, 12.35, repro,
2009-01-17,6.74, 0.31, 0.64, 3.27, 2.26, 12.14, repro,
2009-01-19,7.11, 1.66, -13.06, 3.22, 2.25, 12.20, repro,
2009-01-20,6.78, 2.08, -8.32, 3.47, 2.35, 13.02, repro,
2009-01-21,6.71, 2.52, -4.26, 3.34, 2.31, 12.45, repro,
2009-01-22,6.29, 0.45, -1.35, 3.57, 2.42, 13.39, repro,
2009-01-23,7.48, 1.90, 7.71, 3.21, 2.34, 12.46, repro,
2009-01-24,6.71, 1.75, -11.80, 3.35, 2.41, 12.89, repro,
2009-01-25,8.22, 2.26, -4.29, 3.43, 2.43, 12.95, repro,
2009-01-26,6.35, 2.41, -0.76, 3.47, 2.42, 13.18, repro,
2009-01-27,4.57, 1.76, -7.12, 3.28, 2.25, 11.95, repro,
2009-01-28,6.64, 3.38, -0.98, 3.49, 2.43, 13.14, repro,
2009-01-29,5.52, 3.31, -0.56, 3.41, 2.42, 12.78, repro,
2009-01-30,4.90, 1.63, -11.71, 3.95, 2.79, 15.02, repro,
2009-01-31,7.33, 1.68, -13.11, 3.29, 2.31, 11.91, repro,
2009-02-01,4.10, 2.34, -6.84, 3.38, 2.41, 12.37, repro,
2009-02-02,5.52, 1.93, -3.61, 3.38, 2.34, 12.54, repro,
2009-02-03,5.03, 2.68, -20.32, 3.41, 2.36, 12.74, repro,
2009-02-04,5.72, 2.43, -8.15, 3.32, 2.32, 12.28, repro,
2009-02-05,3.93, 1.70, -8.64, 3.38, 2.39, 12.66, repro,
2009-02-06,5.03, 0.02, -0.04, 3.32, 2.29, 12.23, repro,
2009-02-07,5.93, 3.22, -3.49, 3.27, 2.31, 12.20, repro,
2009-02-08,3.98, 1.85, -6.05, 3.19, 2.30, 12.22, repro,
2009-02-09,3.82, 0.60, 11.44, 3.40, 2.47, 13.32, repro,
2009-02-10,3.79, 1.19, 1.25, 3.21, 2.36, 12.63, repro,
2009-02-11,5.35, 2.17, 0.85, 3.11, 2.27, 12.04, repro,
2009-02-12,4.39, 1.62, 0.93, 3.34, 2.46, 13.38, repro,
2009-02-13,4.76, 1.64, -1.13, 3.32, 2.41, 13.05, repro,
2009-02-14,4.54, 2.35, 0.00, 3.39, 2.50, 13.43, repro,
2009-02-15,5.31, 1.59, -2.42, 3.27, 2.33, 12.24, repro,
2009-02-16,4.71, 1.52, 7.78, 3.41, 2.43, 13.20, repro,
2009-02-17,5.01, 2.08, 15.05, 3.48, 2.63, 14.17, repro,
2009-02-18,4.00, 1.04, -5.93, 3.24, 2.33, 12.29, repro,
2009-02-19,3.71, 2.41, -4.81, 3.49, 2.45, 13.51, repro,
2009-02-20,4.36, 2.61, -11.16, 3.51, 2.51, 14.11, repro,
2009-02-21,2.40, 1.21, -3.58, 3.42, 2.47, 13.41, repro,
2009-02-22,4.47, 2.43, 3.66, 3.30, 2.34, 12.46, repro,
2009-02-23,6.01, 0.46, -0.53, 3.26, 2.30, 12.21, repro,
2009-02-24,4.00, 0.78, -8.24, 3.84, 2.76, 14.25, repro,
2009-02-25,5.95, 0.95, 2.02, 165.29, 194.90, 368.71, repro,
2009-02-26,5.03, 1.56, 4.34, 3.47, 2.47, 13.63, repro,
2009-02-27,6.31, 1.64, -3.31, 4.09, 3.18, 17.96, repro,
2009-03-02,6.45, 0.51, -0.60, 3.63, 2.60, 14.23, repro,
2009-03-03,4.37, 1.82, -0.53, 3.49, 2.52, 13.68, repro,
2009-03-04,3.32, 1.14, 4.28, 3.35, 2.34, 12.77, repro,
2009-03-05,2.62, 2.03, 9.89, 3.51, 2.56, 13.84, repro,
2009-03-06,5.70, 3.32, 9.70, 3.67, 2.86, 14.00, repro,
2009-03-07,2.03, 1.51, -1.77, 3.55, 2.54, 13.54, repro,
2009-03-08,3.51, 3.97, 1.63, 3.86, 2.88, 15.08, repro,
2009-03-09,4.69, 2.62, -5.14, 3.31, 2.44, 12.90, repro,
2009-03-10,3.55, 3.10, 2.48, 3.50, 2.49, 13.50, repro,
2009-03-11,2.84, 4.21, -0.26, 3.34, 2.39, 13.13, repro,
2009-03-12,4.55, 4.29, -8.68, 3.19, 2.28, 12.00, repro,
2009-03-13,4.04, 3.30, -9.09, 3.33, 2.43, 13.05, repro,
2009-03-14,1.42, 1.75, 6.46, 3.94, 3.01, 15.54, repro,
2009-03-15,4.28, 4.07, -1.36, 7.94, 5.78, 27.09, repro,
2009-03-16,3.71, 2.05, -1.13, 3.18, 2.33, 12.12, repro,
2009-03-17,4.27, 2.28, 3.26, 3.26, 2.30, 12.50, repro,
2009-03-18,3.20, 2.78, -5.27, 3.25, 2.27, 12.22, repro,
2009-03-19,3.72, 1.32, -0.56, 3.20, 2.27, 12.17, repro,
2009-03-20,4.76, 2.45, 5.02, 3.17, 2.29, 11.98, repro,
2009-03-21,3.76, 2.60, 6.20, 3.34, 2.40, 13.04, repro,
2009-03-22,-0.27, 0.08, 15.51, 10.32, 6.70, 35.60, repro,
2009-03-23,4.29, 2.13, -11.95, 3.94, 2.92, 16.39, repro,
2009-03-24,4.55, 3.26, -2.53, 3.37, 2.42, 12.63, repro,
2009-03-25,2.04, 2.44, -8.15, 3.46, 2.46, 13.34, repro,
2009-03-26,3.05, 2.25, 3.77, 3.47, 2.64, 13.85, repro,
2009-03-27,2.27, 1.69, -2.73, 3.62, 2.60, 14.00, repro,
2009-03-28,3.23, 1.61, -10.07, 3.30, 2.37, 12.56, repro,
2009-03-29,2.95, 2.25, -17.14, 3.22, 2.35, 12.02, repro,
2009-03-30,3.77, 3.14, -6.77, 3.30, 2.33, 12.17, repro,
2009-03-31,3.55, 2.81, -4.28, 3.11, 2.22, 11.48, repro,
2009-04-01,3.98, 2.77, -7.62, 3.15, 2.27, 11.80, repro,
2009-04-02,4.57, 0.41, -12.12, 3.23, 2.24, 11.55, repro,
2009-04-03,4.74, 1.91, -2.42, 3.75, 2.60, 14.79, repro,
2009-04-09,1.29, 2.78, -1.35, 3.29, 2.36, 12.50, repro,
2009-04-10,1.22, 3.01, -2.68, 3.45, 2.41, 12.73, repro,
2009-04-11,1.31, 2.32, -1.40, 3.24, 2.31, 11.90, repro,
2009-04-12,2.03, 2.53, -4.37, 3.32, 2.29, 12.01, repro,
2009-04-13,2.29, 2.24, -9.77, 3.21, 2.32, 12.05, repro,
2009-04-14,3.74, 2.36, -10.94, 3.37, 2.33, 12.49, repro,
2009-04-15,4.00, 2.29, -4.95, 3.37, 2.37, 12.47, repro,
2009-04-16,2.70, 1.62, -8.18, 3.27, 2.27, 11.82, repro,
2009-04-17,3.25, 1.72, -6.05, 3.38, 2.39, 12.22, repro,
2009-04-18,0.84, 4.21, 0.62, 4.91, 3.23, 16.80, repro,
2009-04-19,0.85, 2.21, -5.13, 3.49, 2.53, 13.54, repro,
2009-04-20,2.29, 2.12, -9.83, 3.30, 2.30, 12.13, repro,
2009-04-21,3.48, 1.83, -11.60, 3.21, 2.25, 11.67, repro,
2009-04-22,2.11, 2.50, -1.23, 3.13, 2.18, 11.13, repro,
2009-04-23,1.47, 0.37, -6.09, 3.12, 2.20, 11.35, repro,
2009-04-24,0.20, 1.98, -5.47, 3.14, 2.23, 11.44, repro,
2009-04-25,1.73, 2.92, -3.41, 3.10, 2.21, 11.20, repro,
2009-04-26,1.87, 1.82, -23.86, 4.80, 3.22, 14.97, repro,
2009-04-27,1.46, 2.29, -10.03, 3.19, 2.29, 11.94, repro,
2009-04-28,0.44, 3.66, -7.14, 3.14, 2.25, 11.39, repro,
2009-04-29,2.60, 3.21, -7.03, 3.25, 2.36, 12.04, repro,
2009-04-30,2.22, 2.60, -7.61, 3.48, 2.44, 13.15, repro,
2009-05-01,2.30, 3.75, -5.19, 3.24, 2.42, 12.06, repro,
2009-05-02,2.48, 3.68, -0.22, 3.26, 2.39, 12.11, repro,
2009-05-03,3.47, 3.85, 0.56, 3.34, 2.41, 12.52, repro,
2009-05-04,1.39, 4.17, 1.19, 3.17, 2.30, 11.79, repro,
2009-05-05,2.61, 5.50, 13.26, 3.36, 2.51, 12.47, repro,
2009-05-06,0.31, 2.58, 4.30, 3.31, 2.45, 12.66, repro,
2009-05-07,0.50, 3.02, 1.92, 3.14, 2.34, 11.46, repro,
2009-05-08,2.56, 3.07, -12.56, 3.12, 2.26, 11.50, repro,
2009-05-09,2.48, 2.52, -11.73, 3.16, 2.26, 11.33, repro,
2009-05-10,1.02, 2.13, -12.80, 3.18, 2.27, 11.46, repro,
2009-05-11,1.59, 1.22, 6.64, 3.16, 2.36, 11.66, repro,
2009-05-12,-0.00, 1.41, 4.85, 3.24, 2.34, 11.76, repro,
2009-05-13,2.07, 1.14, -3.13, 3.32, 2.37, 11.94, repro,
2009-05-14,1.62, 2.30, 1.66, 3.12, 2.22, 11.16, repro,
2009-05-15,2.88, 3.01, -6.03, 3.19, 2.30, 11.72, repro,
2009-05-16,3.53, 1.95, -1.93, 3.28, 2.30, 11.82, repro,
2009-05-17,5.37, 2.23, -1.27, 3.42, 2.40, 12.82, repro,
2009-05-18,2.22, 1.56, -0.63, 3.37, 2.38, 12.15, repro,
2009-05-19,3.69, 0.85, -3.66, 3.45, 2.56, 13.54, repro,
2009-05-20,2.70, 1.70, -9.96, 3.28, 2.42, 11.97, repro,
2009-05-21,1.68, 1.09, -7.43, 3.26, 2.29, 11.63, repro,
2009-05-22,0.70, 2.38, -5.21, 3.26, 2.32, 11.72, repro,
2009-05-23,0.61, 1.38, -11.02, 3.18, 2.25, 11.33, repro,
2009-05-24,2.46, 0.57, -16.61, 3.24, 2.33, 11.79, repro,
2009-05-25,3.25, 1.31, -8.72, 4.04, 2.80, 14.69, repro,
2009-05-26,1.25, 0.41, 2.51, 3.18, 2.29, 11.72, repro,
2009-05-27,-0.95, 0.81, -1.32, 3.14, 2.30, 11.53, repro,
2009-05-28,0.90, 1.73, 4.63, 3.24, 2.30, 12.04, repro,
2009-05-29,1.68, -0.22, 1.60, 3.09, 2.22, 11.68, repro,
2009-05-30,1.99, 1.92, 5.52, 3.32, 2.44, 13.03, repro,
2009-05-31,2.15, 0.64, -6.95, 3.17, 2.27, 12.09, repro,
2009-06-01,1.34, 1.13, 3.90, 3.22, 2.41, 12.17, repro,
2009-06-02,0.20, 2.65, -0.44, 3.17, 2.26, 11.84, repro,
2009-06-03,-0.17, 3.88, 2.17, 3.25, 2.28, 12.00, repro,
2009-06-04,1.73, 0.39, 9.36, 3.18, 2.22, 11.59, repro,
2009-06-05,2.53, 0.58, -0.25, 3.09, 2.18, 11.23, repro,
2009-06-06,-0.94, 0.39, -9.33, 3.48, 2.60, 13.37, repro,
2009-06-07,-1.07, 0.08, -10.77, 3.10, 2.19, 11.66, repro,
2009-06-08,0.13, 0.44, -5.14, 2.99, 2.10, 10.91, repro,
2009-06-09,0.12, -0.21, 4.39, 3.14, 2.20, 11.52, repro,
2009-06-10,0.35, 2.03, 9.23, 3.16, 2.21, 11.84, repro,
2009-06-11,0.44, 1.39, 4.84, 3.12, 2.22, 11.16, repro,
2009-06-12,-0.47, 1.24, 0.35, 2.99, 2.09, 10.90, repro,
2009-06-13,0.66, 0.30, -1.90, 3.10, 2.17, 11.39, repro,
2009-06-14,-0.35, 1.32, 3.33, 3.19, 2.34, 11.62, repro,
2009-06-15,0.35, 1.23, -4.00, 3.07, 2.17, 11.40, repro,
2009-06-16,-1.85, -0.37, 3.42, 3.01, 2.10, 10.97, repro,
2009-06-17,-0.07, 0.10, 0.17, 3.02, 2.10, 11.01, repro,
2009-06-18,-0.18, 2.23, 2.75, 3.22, 2.22, 11.58, repro,
2009-06-19,-2.18, 1.27, 6.06, 3.14, 2.11, 11.30, repro,
2009-06-20,-0.53, 0.01, -14.36, 3.32, 2.20, 12.23, repro,
2009-06-21,0.70, 1.16, 2.14, 3.25, 2.25, 12.40, repro,
2009-06-22,0.13, 0.09, 6.92, 3.10, 2.11, 11.62, repro,
2009-06-23,0.25, 1.91, -0.78, 3.16, 2.17, 11.66, repro,
2009-06-24,-0.12, 0.94, 0.12, 3.07, 2.14, 11.60, repro,
2009-06-25,0.51, 1.95, 12.25, 3.29, 2.33, 11.82, repro,
2009-06-26,0.12, -0.32, -3.63, 3.12, 2.18, 11.65, repro,
2009-06-27,-0.14, -0.29, 6.31, 3.22, 2.25, 12.18, repro,
2009-06-28,-4.92, -1.11, -9.04, 6.41, 4.33, 20.54, repro,
2009-06-29,0.43, -0.07, 0.62, 3.24, 2.21, 12.05, repro,
2009-06-30,1.24, -1.06, 0.25, 3.12, 2.16, 11.46, repro,
2009-07-01,0.28, 0.81, -0.79, 3.07, 2.10, 11.17, repro,
2009-07-02,1.78, 1.27, 4.47, 3.09, 2.13, 11.23, repro,
2009-07-03,1.41, 0.79, -1.20, 3.70, 2.73, 14.82, repro,
2009-07-04,-0.43, -0.71, -1.91, 3.18, 2.17, 11.77, repro,
2009-07-05,-0.90, 0.15, 6.45, 3.01, 2.07, 10.83, repro,
2009-07-06,-2.05, 0.29, 1.64, 3.06, 2.07, 10.91, repro,
2009-07-07,-0.36, 1.08, 2.25, 3.18, 2.16, 11.33, repro,
2009-07-08,-0.55, 0.40, 1.57, 3.15, 2.16, 11.39, repro,
2009-07-09,-0.35, -0.82, -1.87, 3.06, 2.12, 10.98, repro,
2009-07-10,0.96, -0.35, 6.65, 3.02, 2.08, 10.70, repro,
2009-07-11,2.28, -0.53, 8.84, 3.03, 2.12, 11.08, repro,
2009-07-12,0.25, 0.21, -0.84, 3.13, 2.17, 11.40, repro,
2009-07-13,-0.28, 0.82, 5.91, 3.64, 2.48, 14.49, repro,
2009-07-14,-3.94, -0.34, 7.77, 10.03, 7.43, 30.01, repro,
2009-07-15,-0.00, -0.39, -0.11, 3.24, 2.33, 12.12, repro,
2009-07-16,-1.05, 2.44, 8.38, 3.61, 2.57, 15.00, repro,
2009-07-17,1.25, -0.20, 11.10, 3.40, 2.33, 11.72, repro,
2009-07-18,0.54, -0.50, 4.94, 3.05, 2.19, 11.12, repro,
2009-07-19,1.16, 0.06, 10.77, 3.94, 2.88, 16.33, repro,
2009-07-20,-0.42, 0.49, 6.09, 3.34, 2.36, 12.32, repro,
2009-07-21,-0.76, -1.13, 6.86, 3.08, 2.26, 11.55, repro,
2009-07-22,-0.14, 1.28, 3.55, 3.23, 2.28, 11.96, repro,
2009-07-23,0.32, -0.22, 10.80, 3.07, 2.15, 11.15, repro,
2009-07-24,-0.31, -2.09, -3.77, 3.16, 2.22, 11.39, repro,
2009-07-25,-1.04, 1.24, 16.69, 3.52, 2.46, 12.76, repro,
2009-07-26,-1.01, 0.43, 8.07, 3.54, 2.49, 12.92, repro,
2009-07-27,0.18, -0.96, 4.37, 3.17, 2.27, 11.27, repro,
2009-07-28,1.35, -1.99, 5.48, 3.21, 2.36, 12.25, repro,
2009-07-29,0.63, -1.90, -7.40, 3.23, 2.29, 12.18, repro,
2009-07-30,-3.41, -0.08, 8.28, 3.30, 2.23, 11.73, repro,
2009-07-31,-0.26, -0.20, 2.83, 3.27, 2.32, 11.90, repro,